Theta_e
339 338 338 339 340 340 340 341 339 336 335 336 336 335 333 331 331 332 328 326 323 329 333 333 333 332 332 330 329 328 328 328
340 339 337 338 340 340 340 340 339 338 335 334 334 333 332 330 332 328 329 331 332 331 332 332 331 330 329 328 327 327 327 326
340 339 338 337 337 339 341 340 339 339 337 333 331 331 331 330 328 328 330 329 330 330 331 330 329 328 327 326 326 326 326 325
340 339 339 337 336 336 338 339 338 339 338 334 331 330 330 331 329 328 327 328 327 329 329 329 327 325 324 324 324 324 323 323
339 337 335 334 335 334 336 337 337 337 338 335 332 330 331 331 326 326 328 328 327 326 328 327 324 324 323 322 322 322 322 321
336 335 333 332 331 334 336 336 333 334 337 336 333 333 330 326 327 327 326 328 326 326 326 324 323 324 322 321 321 320 320 320
334 334 333 332 332 333 334 332 332 331 332 334 334 330 325 324 326 327 328 328 327 326 326 323 322 322 322 321 320 320 319 319
330 332 333 333 332 332 332 331 331 331 330 330 329 325 324 325 326 328 327 326 326 325 325 322 321 321 321 320 319 319 318 319
329 331 332 333 332 332 332 331 332 328 329 330 327 324 324 326 327 328 325 326 325 324 323 320 320 320 320 319 318 318 318 318
329 331 332 332 331 332 332 331 332 330 329 328 328 325 325 326 328 327 324 325 325 323 319 319 319 320 319 318 317 317 318 318
329 330 332 331 332 332 332 331 332 332 327 329 330 327 327 327 327 327 326 324 324 320 317 319 318 319 318 318 317 317 317 318
329 329 332 331 331 330 330 330 329 331 329 330 328 327 327 327 326 324 323 321 321 319 317 318 319 318 317 317 317 317 317 317
328 328 330 329 326 326 328 328 329 330 331 328 328 327 327 326 325 321 319 319 320 319 317 317 317 317 316 316 316 317 317 317
325 326 328 326 324 324 325 325 324 326 326 328 328 327 327 326 324 321 322 319 319 318 317 316 317 317 317 316 316 315 316 317
325 325 326 324 323 323 321 321 322 324 325 327 327 327 326 326 323 320 320 319 318 317 316 317 317 317 317 317 316 317 315 316
323 324 324 323 324 321 321 320 320 320 322 324 326 326 325 325 323 320 319 315 313 315 316 317 317 316 317 318 318 317 316 314
323 324 322 323 322 322 321 319 319 318 319 321 323 324 324 324 325 322 320 314 315 314 315 316 317 317 317 315 315 317 316 313
322 322 321 320 322 320 319 318 318 318 318 318 320 320 321 324 322 321 320 314 316 314 315 316 316 317 317 317 315 316 316 316
321 321 320 319 319 318 319 319 319 318 317 317 318 319 320 322 323 319 317 316 316 314 315 316 316 317 317 316 315 314 316 316
322 321 320 319 319 318 319 319 318 317 317 316 317 318 319 320 322 319 316 316 315 313 314 316 317 316 317 315 313 314 316 314
Wind_Speed
22 22 22 22 22 22 23 23 25 25 25 26 28 27 26 26 27 28 29 23 26 29 31 33 34 31 30 28 27 26 26 26
23 22 22 23 22 22 24 25 24 24 24 24 25 26 27 27 28 24 21 26 28 30 34 36 33 31 30 27 25 25 26 27
24 23 23 22 22 22 25 25 25 26 27 29 28 26 27 26 23 23 24 26 28 29 32 30 31 29 28 26 25 26 25 25
27 25 25 23 24 23 25 25 28 28 30 31 31 29 28 24 22 27 30 29 30 31 33 30 30 30 28 27 26 25 25 25
30 26 25 24 24 25 26 27 27 28 31 32 33 30 25 22 24 25 31 30 31 31 33 35 33 32 31 28 27 25 24 25
31 28 26 24 23 24 28 27 27 28 31 32 31 30 24 20 21 24 30 37 35 34 35 41 36 35 33 30 27 26 26 26
33 30 29 27 25 26 27 27 27 25 26 28 29 26 26 22 21 23 29 33 39 39 41 39 37 36 33 31 28 26 26 26
35 33 31 30 28 29 27 26 27 28 28 27 27 29 26 21 21 23 23 28 39 38 41 38 36 35 34 30 28 26 26 28
38 36 33 32 29 30 29 26 24 27 27 27 28 29 27 22 23 24 27 25 33 39 38 35 33 33 34 30 28 28 29 28
39 39 35 32 30 30 29 27 24 24 24 24 28 31 28 27 25 25 33 35 35 39 37 34 34 34 31 29 28 28 28 29
40 41 39 34 30 28 27 25 23 23 24 25 27 28 28 28 25 25 36 39 39 41 35 36 33 33 31 29 28 26 29 28
39 39 39 35 30 25 23 23 23 22 24 25 25 26 27 27 26 29 38 40 41 41 38 35 34 33 27 27 24 27 26 26
38 37 40 36 30 27 24 23 22 22 22 24 25 25 28 27 26 30 33 35 36 39 38 37 27 31 27 18 13 19 22 24
30 33 40 37 28 25 18 22 21 23 24 22 21 25 29 30 28 32 30 35 36 35 37 27 23 35 18 16 3 3 14 21
29 34 38 33 28 25 19 17 15 19 21 22 21 27 26 34 34 39 36 42 36 37 38 30 27 29 31 14 3 3 6 14
25 30 33 32 31 28 22 19 13 15 19 22 22 23 22 33 36 37 41 40 34 36 39 34 34 28 31 22 13 16 3 3
26 28 26 30 30 27 23 17 18 16 19 20 22 19 15 39 35 41 42 38 35 37 35 34 37 31 29 21 19 15 11 4
26 28 27 26 27 26 26 23 21 19 18 18 17 18 19 24 31 42 44 37 31 38 36 34 35 32 32 29 19 7 7 5
29 30 27 28 29 28 28 26 22 21 17 17 17 18 17 22 27 34 41 40 40 37 38 34 38 36 36 29 28 17 11 14
31 30 29 30 30 27 29 26 23 22 21 17 17 17 18 20 29 34 38 33 37 41 39 35 32 33 39 31 24 28 24 14
Wind_Direction
187 189 190 194 192 194 196 198 193 191 187 183 182 183 185 184 182 181 182 210 177 179 181 175 164 165 164 164 163 161 156 152
192 193 192 193 194 199 202 206 203 201 195 187 187 187 186 185 182 194 201 186 180 178 178 174 162 167 166 167 167 166 162 156
198 198 198 198 193 199 205 211 211 206 203 200 199 194 189 186 197 199 196 194 187 181 179 166 169 169 169 172 172 168 165 158
201 203 203 203 198 198 206 208 211 209 205 202 199 193 195 212 225 217 210 209 199 183 175 168 168 168 169 171 171 169 168 162
204 205 206 206 205 198 204 205 210 213 206 206 206 212 224 236 235 224 212 204 198 180 175 171 173 173 171 173 173 172 169 162
210 206 206 204 210 202 202 201 209 211 212 216 213 217 223 217 225 226 213 209 201 180 164 167 170 175 177 175 177 176 171 165
214 207 206 206 204 206 199 203 207 212 214 214 213 216 211 216 219 218 213 197 190 181 172 168 172 177 179 179 179 175 171 167
216 209 208 207 204 211 206 206 208 210 213 219 216 211 210 210 213 213 206 167 172 178 173 170 176 180 181 180 180 176 173 169
217 209 206 208 207 212 211 209 207 213 216 215 213 212 212 212 207 200 190 180 172 176 171 173 175 176 177 180 180 178 178 173
216 211 205 208 210 212 212 213 212 209 214 220 215 213 216 207 205 190 188 185 185 175 171 170 173 175 176 179 180 178 182 182
213 209 205 206 208 214 213 213 212 211 212 211 209 213 213 207 209 213 192 187 183 171 166 170 170 176 180 179 183 183 188 184
210 206 202 203 207 207 210 214 219 213 208 210 213 207 211 209 217 201 188 176 167 165 163 169 174 176 168 179 179 192 188 187
202 194 197 197 198 197 201 204 210 212 213 221 214 209 215 211 204 185 170 156 158 167 165 170 162 160 146 143 162 188 191 196
189 188 190 193 189 190 197 208 216 219 222 226 228 215 212 207 199 194 168 160 168 169 169 167 158 166 159 135 135 171 208 207
187 186 183 183 185 187 195 197 213 213 218 217 216 219 210 203 191 181 178 173 176 176 178 173 163 171 167 154 142 180 156 215
183 183 177 179 184 183 185 196 192 209 213 214 212 215 210 205 196 185 180 177 180 189 186 179 169 172 177 174 158 146 180 153
176 177 181 182 182 189 188 197 204 212 212 221 216 206 212 196 207 193 189 180 189 186 184 182 176 173 176 158 141 145 165 128
179 175 183 188 184 189 195 194 190 198 201 205 210 219 221 198 195 193 192 183 194 184 183 184 178 177 179 174 160 161 175 147
183 179 177 187 188 196 202 203 201 210 201 194 201 213 218 214 200 190 190 185 184 185 185 185 183 183 180 181 185 198 212 194
181 180 180 180 188 201 202 201 199 201 209 194 199 205 212 213 209 198 190 187 181 185 193 183 187 191 189 190 179 206 226 242